Location: Dammartin
(48.9032°N, 1.6195°E)
Time: 21:54:55
(UTC+00:00)

YUBILEINY - Pass Details

Date: 13 December 2023
Orbit: 1479 x 1508 km, 82.5° (Epoch: 04 March)

Event Time Altitude Azimuth Distance (km) Brightness Sun altitude
Rises 20:39:28 0° 346° (NNW) 4,624 ? -45.1°
Reaches altitude 10° 20:42:37 10° 338° (NNW) 3,637 ? -45.6°
Maximum altitude 20:50:15 36° 277° (W) 2,184 ? -46.8°
Enters shadow 20:52:48 30° 245° (WSW) 2,387 ? -47.1°
Exits shadow 21:00:23 - 208° (SSW) 4,392 ? -48.3°
Sets 21:01:00 0° 207° (SSW) 4,587 ? -48.4°
